#timestamp,LO_Frequency,Hit,StdDev 
1652292015.8,286047002.8,Y
1652292035.7,286047000.9,P
1652292055.5,286047000.9,N
1652292075.3,286047000.8,N
1652292095.2,286046998.7,Y
1652292115.0,286046998.9,P
1652292115.9,286046998.9,N
1652292135.8,286047000.8,N
1652292155.6,286047001.1,N
1652292175.4,286046998.5,N
1652292195.3,286046998.5,N
1652292215.1,286046998.2,N
1652292235.9,286047000.3,N
1652292255.7,286047000.2,N
1652292275.5,286047000.9,N
1652292295.4,286046999.7,N
1652292315.2,286047000.6,N
1652292335.0,286046998.1,N
1652292336.0,286046998.1,N
1652292355.8,286047001.0,N
1652292375.6,286046998.3,N
1652292395.5,286046998.5,N
1652292415.3,286047001.1,N
1652292435.1,286046998.7,N
1652292455.9,286046999.3,N
1652292475.7,286046999.0,N
1652292495.5,286046999.0,N
1652292515.4,286046998.4,N
1652292535.2,286046999.2,N
1652292555.1,286046999.6,N
1652292556.0,286046999.6,N
1652292575.8,286046997.3,N
1652292595.6,286046997.7,N
1652292615.5,286046996.5,Y
1652292635.3,286046999.6,P
1652292655.2,286046999.5,P
1652292675.9,286046995.0,P
1652292695.7,286046997.6,N
1652292715.6,286046997.4,N
1652292735.4,286046997.5,N
1652292755.2,286046995.4,Y
1652292775.1,286046999.0,P
1652292776.0,286046999.0,N
1652292795.8,286046996.5,P
1652292815.7,286046999.6,N
1652292835.5,286046999.5,N
1652292855.3,286046999.2,N
1652292875.2,286046997.8,N
1652292895.0,286046995.8,Y
1652292895.9,286046995.8,P
1652292915.8,286046999.2,N
1652292935.6,286046997.3,N
1652292955.4,286046997.9,N
1652292975.3,286046997.8,N
1652292995.1,286046997.8,N
1652293015.8,286046995.5,Y
1652293035.7,286046996.6,P
1652293055.5,286046996.9,P
1652293075.4,286046997.3,P
1652293095.2,286046997.1,Y
1652293115.0,286046999.8,P
1652293115.9,286046999.8,N
1652293135.8,286047001.0,N
1652293155.6,286047001.0,N
1652293175.5,286047001.0,N
1652293195.3,286047001.2,N
1652293215.1,286046998.6,N
1652293235.9,286046998.6,N
1652293255.7,286046998.4,N
1652293275.5,286046998.3,N
1652293295.4,286046998.9,N
1652293315.2,286046997.0,N
1652293335.1,286046997.7,N
1652293336.0,286046997.7,N
1652293355.8,286046996.7,N
1652293375.6,286046997.0,N
1652293395.5,286046997.0,N
1652293415.3,286046999.2,N
1652293435.1,286046996.6,N
1652293455.9,286046998.0,N
1652293475.7,286046998.0,N
1652293495.6,286046995.2,Y
1652293515.4,286046996.9,P
1652293535.2,286046999.0,N
1652293555.1,286046998.8,N
1652293556.0,286046998.8,N
1652293575.8,286046998.8,N
1652293595.6,286046998.4,N
1652293615.5,286046998.8,N
1652293635.3,286046998.3,N
1652293655.2,286046997.0,Y
1652293675.0,286047001.2,P
1652293675.9,286047001.2,N
1652293695.8,286047000.1,N
1652293715.6,286046999.3,N
1652293735.4,286046998.9,N
1652293755.3,286046999.2,N
1652293775.1,286046998.2,N
1652293795.8,286047001.0,N
1652293815.7,286046999.5,N
1652293835.5,286046999.2,N
1652293855.4,286046996.9,Y
1652293875.2,286046996.5,P
1652293895.0,286046996.9,N
1652293895.9,286046996.9,N
1652293915.8,286046999.6,N
1652293935.6,286046996.8,N
1652293955.4,286046997.1,N
1652293975.3,286046996.5,N
1652293995.1,286046997.8,N
1652294015.9,286046997.4,N
1652294035.7,286046997.7,N
1652294055.5,286046995.3,Y
1652294075.4,286046998.8,P
1652294095.2,286046999.2,N
1652294115.0,286046997.1,P
1652294115.9,286046997.1,Y
1652294135.8,286046998.2,P
1652294155.6,286047001.2,P
1652294175.5,286047001.1,N
1652294195.3,286047000.5,N
1652294215.1,286046999.8,N
1652294235.9,286047000.6,N
1652294255.7,286047002.8,N
1652294275.5,286046998.6,N
1652294295.4,286047000.8,N
1652294315.2,286047000.5,N
1652294335.1,286046998.1,N
1652294336.0,286046998.1,N
1652294355.8,286046998.3,N
1652294375.6,286046998.8,N
1652294395.5,286046998.1,N
1652294415.3,286046998.2,N
1652294435.1,286047001.1,N
1652294455.9,286046998.2,N
1652294475.7,286046998.4,N
1652294495.6,286047001.1,N
1652294515.4,286047000.9,N
1652294535.2,286047002.3,N
1652294555.1,286046999.8,N
1652294556.0,286046999.8,N
1652294575.8,286047000.3,N
1652294595.7,286046999.7,N
1652294615.5,286047002.1,N
1652294635.3,286047000.0,N
1652294655.2,286047001.0,N
1652294675.0,286047001.0,N
1652294675.9,286047001.0,N
1652294695.8,286046998.4,N
1652294715.6,286047001.0,N
1652294735.4,286047000.8,N
1652294755.3,286046998.2,N
1652294775.1,286046998.8,N
1652294795.8,286046998.4,N
1652294815.7,286046998.9,N
1652294835.5,286046999.0,N
1652294855.4,286046998.2,N
1652294875.2,286047000.6,N
1652294895.0,286047000.6,N
1652294895.9,286047000.6,N
1652294915.8,286047000.5,N
1652294935.6,286047001.2,N
1652294955.4,286047001.0,N
1652294975.3,286047000.6,N
1652294995.1,286047000.6,N
1652295015.9,286047000.3,N
1652295035.7,286046999.8,N
1652295055.5,286047000.5,N
1652295075.4,286047000.6,N
1652295095.2,286047000.6,N
1652295115.0,286047000.5,N
1652295115.9,286047000.5,N
1652295135.8,286047001.2,N
1652295155.6,286046999.9,N
1652295175.5,286047000.1,N
1652295195.3,286047002.4,N
1652295215.1,286047002.8,N
1652295235.9,286047000.4,N
1652295255.7,286047002.1,N
1652295275.5,286047001.3,N
1652295295.4,286047002.6,N
1652295315.2,286047002.6,N
1652295335.1,286047002.5,N
1652295336.0,286047002.5,N
1652295355.8,286047001.5,N
1652295375.6,286047003.9,Y
1652295395.5,286047002.0,P
1652295415.3,286047001.5,N
1652295435.1,286047004.3,P
1652295455.9,286047002.0,N
1652295475.7,286046999.8,N
1652295495.6,286047002.4,N
1652295515.4,286047001.5,N
1652295535.2,286047001.4,N
1652295555.1,286047003.8,Y
1652295556.0,286047003.8,P
1652295575.8,286047000.1,N
1652295595.7,286047001.1,N
